Location: Newark
(44.6303°N, 123.0961°W)
Time: 09:30:28
(UTC+00:00)

ISS - Visible Passes

Search period start: 27 January 2020 00:00
Search period end: 06 February 2020 00:00
Orbit: 416 x 423 km, 51.6° (Epoch: 27 January)

Date Brightness Start Highest point End Pass type
(mag) Time Alt. Az. Time Alt. Az. Time Alt. Az.
27 Jan -2.4 02:45:47 10° WNW 02:48:49 29° NNW 02:49:43 25° NNE visible
28 Jan -2.7 01:57:59 10° W 02:01:10 36° NNW 02:04:09 11° NE visible
28 Jan -1.3 03:35:46 10° NW 03:37:07 18° NW 03:37:07 18° NW visible
29 Jan -2.2 02:48:02 10° WNW 02:50:53 24° N 02:51:32 23° NNE visible
30 Jan -2.2 02:00:15 10° WNW 02:03:09 26° N 02:05:57 11° NE visible
30 Jan -1.3 03:37:39 10° NW 03:38:54 18° NW 03:38:54 18° NW visible
31 Jan -2.3 02:50:02 10° NW 02:52:56 25° N 02:53:19 25° NNE visible
01 Feb -2.2 02:02:21 10° NW 02:05:11 24° N 02:07:46 11° NE visible
01 Feb -1.5 03:39:18 10° NW 03:40:44 22° NW 03:40:44 22° NW visible
02 Feb -2.9 02:51:45 10° NW 02:54:53 34° NNE 02:55:13 33° NNE visible
03 Feb -2.5 02:04:10 10° NW 02:07:09 28° NNE 02:09:45 12° ENE visible
03 Feb -1.9 03:40:53 10° WNW 03:42:43 30° WNW 03:42:43 30° WNW visible
04 Feb -3.7 02:53:18 10° NW 02:56:40 61° NNE 02:57:21 47° E visible
05 Feb -3.2 02:05:43 10° NW 02:08:59 43° NNE 02:12:05 11° E visible
05 Feb -2.0 03:42:38 10° WNW 03:45:04 31° WSW 03:45:04 31° WSW visible
